Airfield :







YOU CAN JOIN US ON...

 
LOGIN :

Register | Disclaimer

   EN    FR    IT 

 









Legend :    VFR   Marginal VFR   IFR   Intensive IFR   Very Intensive IFR
Visi :
Ceiling :
>= 8 km
>= 3000ft
5 to 8 km
1000 to 3000 ft
1500m to 5 km
500 to 1000 ft
800 to 1500m
200 to 500 ft
< 800m
< 200 ft
Symbols :   Thunderstorms  Fog  Heavy snow  Heavy precipitations  Wind > 20 kt






- Airport Elevation : 71 ft
- IATA code : YBC


CYBC - Baie Comeau

CURRENT METAR :
  • 080300Z AUTO 27012G18KT 9SM CLR M14/M20 A3007 RMK SLP185

EXPIRED METARs :
  • 080200Z AUTO 27010KT 9SM BKN031 M13/M19 A3005 RMK PRESRR SLP178
  • 080100Z AUTO 28014G20KT 9SM BKN160 M12/M18 A3000 RMK SLP162

TAF TAF CYBC
Valid from the 08 at 02:00 until the 08 at 14:00 UTC


080140Z 0802/0814 28012G22KT P6SM FEW040
BECMG 0805/0807 29010KT RMK FCST BASED ON AUTO OBS. NXT FCST BY 080800Z
CZUL FIR / North America



MET'MAP, your aeronautical weather chart ! - Copyright ORBIFLY December 2007 - Disclaimer

ORBIFLY MET'MAP TEAM :

Programming & Development : Alexandra Zaïnal
Concept & original design : Baudouin d'Aumeries
Assistance for programming : Marc-Olivier Méhu
Technical & hardware support : Manuel Goepfert

Contact : metmap@orbifly.com




SOURCES & CREDITS :

   NOAA